Showing default

JILIN-01-05, 43023

Orbit data source: Space-Track

JILIN-01-05, 43023 is a payload satellite owned by Changguang WJ (CN) in SSO that was launched on Tue, 21 Nov 2017 UTC via a CHANG ZHENG 6 launch vehicle from the Taiyaun Space Center, China (TSC). Payload-class satellites include a variety of spacecraft equipped with specific instruments for various scientific and technological missions. These include communications satellites like Starlink; space stations such as the ISS; scientific satellites like the Hubble; Earth observation satellites from companies like Planet Labs, Umbra, and HawkEye 360; GPS; miniature CubeSats for education and research; and military/defense satellites.

Loading next visibility...
Identifier
43023, 2017-074B
Orbit
SSO
Last TLE update
6 hours ago
Origin
Manufacturer
HARB/CIOMP
Mission
Operational Commercial Imaging
Bus & Motor
JL-1, Unknown motor
Mass
95 kg wet, 95 kg dry
Launch date (UTC)
2017-11-21 (8 years ago)
Launch vehicle
CHANG ZHENG 6
Launch site
Taiyaun Space Center, China (TSC)
Object type
Payload
Rocket body
Debris
Shape & HBR
Box + 2 Pan, 0.8 m
Radar Cross Section
2.000 m², Medium (>0.1 m² and < 1m²)

Expand to show TLE details & history

TLE from 6 hours ago
0 JILIN-01-05
1 43023U 17074B   25199.92106141  .00004155  00000-0  15145-3 0  9995
2 43023  97.4821 298.0867 0005003 346.9643  13.1467 15.28740668423006
Epoch: 2025-07-18T22:06Z
TLE epoch observation values (Epoch: 2025-07-18T22:06:19.705Z)
Latitude
Longitude
29.53901°
Altitude
479.334 km
Speed
7.628 km/s
True Right ascension
19h 52m 20s
True Declination
0° 00' 00"
Sunlit
Object was in full shadow at epoch
Visualization orbit readout
Latitude
38.53173°
Longitude
23.83911°
Altitude
482.976 km
Speed
7.629 km/s
Apparent Right ascension
23h 48m 58s
Apparent Declination
3° 38' 15"
Sunlit
Object is in full shadow
Visualization observer readout
Local Sidereal Time
17:21:55
Azimuth
82.864° E
Elevation
-2.834°
Doppler factor
1
Orbital elements
Apogee altitude
479.963 km
Perigee altitude
473.104 km
Semi-major axis
6,854.67 km
Eccentricity
0.0005
Inclination
97.4821°
RAAN
298.0867°
Arg. of periapsis
346.9643°
True anomaly
13.15975°
Mean anomaly
13.1467°
Eccentric anomaly
13.15322°
Mean motion
3.8244 °/min
Orbital period
94.13 mins
BSTAR
0.00015145
Loading maneuver chart data...
Loading SW <> Apogee altitude chart data...
Loading historical data...
Loading historical data...
Loading historical data...
Loading historical data...
Loading historical data...
Loading historical data...
Loading historical data...
Other satellites on launch #74 in the year 2017 (2017-11-21 UTC)
|